Regional Weather Roundup
Issued by NWS

Home | Current Version | Previous Version | Graphics & Text | Print | Product List | Glossary On
Versions: 1 2 3 4 5 6 7 8 9 10 11 12 13 14 15 16 17 18 19 20 21 22 23 24 25 26 27 28 29 30 31 32 33 34 35 36 37 38 39 40 41 42 43 44 45 46 47 48 49 50
878
ASUS43 KIND 290259
RWRIN

WEATHER ROUNDUP FOR INDIANA
NATIONAL WEATHER SERVICE INDIANAPOLIS IN
1100 PM EDT WED SEP 28 2016

NOTE: "FAIR" INDICATES FEW OR NO CLOUDS BELOW 12,000 FEET WITH NO
SIGNIFICANT WEATHER AND/OR OBSTRUCTIONS TO VISIBILITY.

* - STATION DOES NOT REPORT WEATHER SUCH AS PRECIPITATION OR FOG.

+ - STATION NOT QUALITY CONTROLLED BY THE NATIONAL WEATHER SERVICE.
    USE DATA WITH CAUTION...ESPECIALLY DEWPOINT AND RELATIVE
    HUMIDITY OBSERVATIONS.

INZ001>003-010>013-019-020-290400-
NORTHWEST INDIANA

CITY           SKY/WX    TMP DP  RH WIND       PRES   REMARKS
GARY /AIRPORT/ CLOUDY    61  55  82 NE17G29   30.04R

$$

LMZ046-743>745-290400-
SOUTHERN LAKE MICHIGAN

STATION/POSITION TIME  TEMP    WIND        PRES    WAVE
                       AIR SEA DIR/SP/G            HT
                 (UTC) (F)     (DEG/KT/KT) (MB)    (FT)
BURNS HARBOR     0240   61      60/ 20/ 26 1016.9R
MICHIGAN CITY    0230   60      20/ 22/ 25   N/A
5NW MICH CITY    0250   61 66   50/ 17/ 23   N/A     6

$$

INZ004-005-014>016-021>024-290400-
NORTH CENTRAL INDIANA

CITY           SKY/WX    TMP DP  RH WIND       PRES   REMARKS
GOSHEN         LGT RAIN  57  53  86 N13G21    29.98R
SOUTH BEND     CLOUDY    55  53  93 N13       30.02S

$$

INZ006>009-017-018-025>027-290400-
NORTHEAST INDIANA

CITY           SKY/WX    TMP DP  RH WIND       PRES   REMARKS
ANGOLA *+        N/A     54  39  58 CALM      29.99S
FORT WAYNE     CLOUDY    54  52  93 N5        29.97R
KENDALLVILLE + HVY RAIN  53  51  95 NE7       29.98R

$$

INZ028-029-035-036-043>045-051>053-290400-
WEST CENTRAL INDIANA

CITY           SKY/WX    TMP DP  RH WIND       PRES   REMARKS
CRAWFORDSVL +  CLOUDY    52  52 100 NW6       30.00S
LAFAYETTE      NOT AVBL
TERRE HAUTE    CLOUDY    57  50  77 NW10      30.02S

$$

INZ030>032-037>040-046>048-054>057-064-065-290400-
CENTRAL INDIANA

CITY           SKY/WX    TMP DP  RH WIND       PRES   REMARKS
INDIANAPOLIS   CLOUDY    55  50  83 W6        29.98S
-EAGLE CREEK   CLOUDY    57  51  80 NW7       29.98S
KOKOMO *+      MOCLDY    54  52  94 NW6       29.99R
MT COMFORT *+  MOCLDY    54  52  94 W6        29.97F
SHELBYVILLE    CLOUDY    57  51  80 NW8       29.97S

$$

INZ033-034-041-042-049-050-058-059-290400-
EAST CENTRAL INDIANA

CITY           SKY/WX    TMP DP  RH WIND       PRES   REMARKS
MUNCIE         CLOUDY    55  52  89 N7        29.96S

$$

INZ060-061-067>069-081>083-085>088-290400-
SOUTHWEST INDIANA

CITY           SKY/WX    TMP DP  RH WIND       PRES   REMARKS
EVANSVILLE     CLEAR     55  47  74 W5        30.05S
HUNTINGBURG *+   N/A     55  46  71 NW8       30.03S

$$

INZ062-063-066-070>080-084-089>092-290400-
SOUTH CENTRAL AND SOUTHEAST INDIANA

CITY           SKY/WX    TMP DP  RH WIND       PRES   REMARKS
BLOOMINGTON    CLOUDY    55  48  77 NW3       30.00S
MADISON *+     PTCLDY    54  52  94 W5        30.00S
SEYMOUR +      CLOUDY    57  52  82 CALM      29.99R

$$





USA.gov is the U.S. government's official web portal to all federal, state and local government web resources and services.